Location: Franzen
(48.6167°N, 15.3833°E)
Time: 18:27:52
(UTC+00:00)

A-11 Canister half - Pass Details

Date: 06 August 2021
Orbit: 1515 x 1685 km, 47.2° (Epoch: 19 September)

Event Time Altitude Azimuth Distance (km) Brightness Sun altitude
Rises 21:09:51 0° 290° (WNW) 4,895 12.4 -20.1°
Reaches altitude 10° 21:13:21 10° 282° (WNW) 3,923 11.7 -20.4°
Maximum altitude 21:21:59 34° 223° (SW) 2,527 9.9 -21.1°
Enters shadow 21:26:10 25° 185° (S) 2,924 10.0 -21.4°
Drops below altitude 10° 21:30:39 10° 164° (SSE) 3,938 - -21.7°
Sets 21:34:12 0° 155° (SSE) 4,916 - -21.9°
